GW4987 Weather Reports


time (UTC)temp
C
wind
direction
speed
KPH
gust
KPH
rain 1hr
cm
rain 24hr
cm
rain mn
cm
humidity
%
barometer
mb
20260507095509 7 304 6.4 9.7 0.00 0.00 0.00 56 1020.4
20260507092009 7 325 4.8 8.0 0.00 0.00 0.00 54 1020.2
20260507091547 7 300 4.8 6.4 0.00 0.00 0.00 54 1020.4
20260507091047 7 318 4.8 8.0 0.00 0.00 0.00 53 1020.5
20260507090509 8 290 4.8 8.0 0.00 0.00 0.00 53 1020.3
20260507090009 8 266 9.7 9.7 0.00 0.00 0.00 53 1020.3
20260507085547 8 273 8.0 8.0 0.00 0.00 0.00 53 1020.2
20260507083546 9 240 3.2 3.2 0.00 0.00 0.00 50 1020.6
20260507083009 9 113 0.0 3.2 0.00 0.00 0.00 49 1020.2
20260507082547 10 112 4.8 4.8 0.00 0.00 0.00 47 1020.6
20260507082046 10 72 3.2 4.8 0.00 0.00 0.00 47 1020.5
20260507081510 11 232 3.2 4.8 0.00 0.00 0.00 45 1020.3
20260507081047 11 124 0.0 4.8 0.00 0.00 0.00 45 1020.4
20260507080546 11 326 0.0 4.8 0.00 0.00 0.00 45 1020.5
20260507080010 11 235 3.2 9.7 0.00 0.00 0.00 44 1020.3
20260507075547 11 250 9.7 14.5 0.00 0.00 0.00 43 1020.3
20260507075046 11 268 9.7 12.9 0.00 0.00 0.00 44 1020.2
20260507074547 11 275 9.7 9.7 0.00 0.00 0.00 45 1020.2
20260507074010 11 282 0.0 6.4 0.00 0.00 0.00 45 1020.2
20260507073546 10 276 4.8 4.8 0.00 0.00 0.00 47 1020.3
20260507073047 10 258 3.2 4.8 0.00 0.00 0.00 48 1020.3
20260507072547 10 37 6.4 6.4 0.00 0.00 0.00 48 1020.3
20260507072010 10 79 4.8 6.4 0.00 0.00 0.00 47 1020.4
20260507071547 10 121 4.8 4.8 0.00 0.00 0.00 47 1020.2
20260507071047 10 93 3.2 6.4 0.00 0.00 0.00 46 1020.3
20260507070513 11 107 3.2 4.8 0.00 0.00 0.00 45 1020.3
20260507070008 11 228 6.4 9.7 0.00 0.00 0.00 44 1020.2
20260507065547 11 213 3.2 9.7 0.00 0.00 0.00 43 1020.3
20260507065047 11 263 8.0 9.7 0.00 0.00 0.00 43 1020.3
20260507064546 12 255 8.0 14.5 0.00 0.00 0.00 43 1020.4
20260507064046 12 282 4.8 9.7 0.00 0.00 0.00 43 1020.4
20260507063547 11 280 8.0 8.0 0.00 0.00 0.00 43 1020.4
20260507063010 11 236 8.0 11.3 0.00 0.00 0.00 44 1020.3
20260507062547 11 137 4.8 6.4 0.00 0.00 0.00 44 1020.3
20260507062047 11 204 0.0 3.2 0.00 0.00 0.00 44 1020.2
20260507060046 12 194 4.8 12.9 0.00 0.00 0.00 41 1020.1
20260507055546 12 201 4.8 6.4 0.00 0.00 0.00 42 1020.1
20260507055047 12 170 4.8 8.0 0.00 0.00 0.00 42 1020.2
20260507054510 12 185 6.4 8.0 0.00 0.00 0.00 41 1020.1
20260507054010 12 213 8.0 9.7 0.00 0.00 0.00 41 1020.2
20260507053547 12 197 4.8 9.7 0.00 0.00 0.00 41 1020.2
20260507053010 12 258 4.8 16.1 0.00 0.00 0.00 40 1020.0
20260507052546 12 241 8.0 14.5 0.00 0.00 0.00 40 1020.1
20260507052046 12 242 16.1 17.7 0.00 0.00 0.00 40 1020.0
20260507051547 12 196 11.3 14.5 0.00 0.00 0.00 40 1020.0
20260507051009 12 257 6.4 9.7 0.00 0.00 0.00 40 1020.1
20260507050546 12 182 3.2 8.0 0.00 0.00 0.00 40 1019.9
20260507050046 12 184 4.8 12.9 0.00 0.00 0.00 40 1019.8
20260507045509 13 211 8.0 19.3 0.00 0.00 0.00 40 1019.8
20260507045009 13 167 4.8 20.9 0.00 0.00 0.00 39 1020.1
20260507044547 13 269 9.7 22.5 0.00 0.00 0.00 40 1019.7
20260507044046 13 221 4.8 14.5 0.00 0.00 0.00 40 1019.8
20260507043547 13 238 8.0 16.1 0.00 0.00 0.00 39 1019.7
20260507043047 13 254 9.7 17.7 0.00 0.00 0.00 39 1019.7
20260507041046 13 213 8.0 17.7 0.00 0.00 0.00 39 1019.5
20260507040509 13 257 12.9 22.5 0.00 0.00 0.00 39 1019.4
20260507034546 13 217 8.0 25.7 0.00 0.00 0.00 38 1019.3
20260507034046 13 256 12.9 22.5 0.00 0.00 0.00 38 1019.4
20260507033547 13 254 9.7 22.5 0.00 0.00 0.00 38 1019.0
20260507033010 13 231 11.3 24.1 0.00 0.00 0.00 38 1019.3
20260507032546 13 239 9.7 29.0 0.00 0.00 0.00 37 1018.9
20260507032047 13 260 11.3 19.3 0.00 0.00 0.00 37 1018.8
20260507030547 14 258 4.8 11.3 0.00 0.00 0.00 37 1018.8
20260507030010 14 196 4.8 8.0 0.00 0.00 0.00 37 1018.8
20260507025546 15 286 8.0 9.7 0.00 0.00 0.00 36 1018.9
20260507025046 15 286 8.0 9.7 0.00 0.00 0.00 36 1018.7
20260507024547 15 286 8.0 9.7 0.00 0.00 0.00 36 1018.7
20260507024011 15 286 8.0 9.7 0.00 0.00 0.00 36 1018.5
20260507023546 15 286 8.0 9.7 0.00 0.00 0.00 36 1018.4
20260507023047 15 282 9.7 9.7 0.00 0.00 0.00 36 1018.2
20260507021009 15 262 25.7 27.4 0.00 0.00 0.00 34 1018.0
20260507020546 17 275 24.1 24.1 0.00 0.00 0.00 32 1018.0
20260507020047 17 275 24.1 24.1 0.00 0.00 0.00 32 1018.0
20260507014047 17 275 24.1 24.1 0.00 0.00 0.00 32 1018.0
20260507013509 17 257 19.3 27.4 0.00 0.00 0.00 31 1017.9
20260507013046 17 248 12.9 20.9 0.00 0.00 0.00 31 1017.7
20260507012546 17 226 14.5 25.7 0.00 0.00 0.00 30 1017.8
20260507012046 18 253 19.3 20.9 0.00 0.00 0.00 29 1017.9
20260507010009 18 237 19.3 27.4 0.00 0.00 0.00 29 1017.7
20260507005546 18 272 22.5 25.7 0.00 0.00 0.00 29 1017.7
20260507005047 19 218 17.7 27.4 0.00 0.00 0.00 28 1017.8
20260507004510 19 247 14.5 20.9 0.00 0.00 0.00 28 1017.8
20260507004009 19 250 8.0 16.1 0.00 0.00 0.00 28 1017.8
20260507003547 18 193 11.3 24.1 0.00 0.00 0.00 29 1017.7
20260507003009 20 281 8.0 20.9 0.00 0.00 0.00 27 1017.7
20260507002547 19 214 14.5 20.9 0.00 0.00 0.00 27 1017.8
20260507002047 19 265 11.3 24.1 0.00 0.00 0.00 28 1017.5
20260507000546 20 217 11.3 19.3 0.00 0.00 0.00 27 1017.6
20260507000046 20 250 11.3 17.7 0.00 0.00 0.00 28 1017.5
20260506235547 19 218 16.1 27.4 0.00 0.00 0.00 28 1017.6
20260506233546 19 212 20.9 30.6 0.00 0.00 0.00 27 1017.6
20260506233046 19 249 9.7 22.5 0.00 0.00 0.00 27 1017.6
20260506232547 20 198 8.0 20.9 0.00 0.00 0.00 27 1017.7
20260506232009 20 262 3.2 16.1 0.00 0.00 0.00 27 1017.8
20260506231546 21 230 8.0 12.9 0.00 0.00 0.00 25 1017.6
20260506231047 19 250 11.3 17.7 0.00 0.00 0.00 26 1017.7
20260506230510 19 176 9.7 16.1 0.00 0.00 0.00 27 1017.5
20260506230010 19 221 8.0 8.0 0.00 0.00 0.00 26 1017.5
20260506225547 18 103 4.8 12.9 0.00 0.00 0.00 27 1017.6
20260506225009 18 289 9.7 20.9 0.00 0.00 0.00 27 1017.6
20260506224546 18 261 24.1 25.7 0.00 0.00 0.00 26 1017.7
20260506224047 19 188 9.7 14.5 0.00 0.00 0.00 26 1017.6
20260506222046 19 295 17.7 24.1 0.00 0.00 0.00 26 1017.9
20260506221509 19 310 4.8 12.9 0.00 0.00 0.00 26 1017.9
20260506221009 19 84 4.8 8.0 0.00 0.00 0.00 26 1018.0
20260506220546 18 31 3.2 6.4 0.00 0.00 0.00 26 1018.0
20260506220047 20 70 9.7 11.3 0.00 0.00 0.00 24 1018.0
20260506215547 18 50 3.2 12.9 0.00 0.00 0.00 26 1018.0
20260506215047 19 89 4.8 9.7 0.00 0.00 0.00 25 1018.0
20260506214547 18 334 9.7 22.5 0.00 0.00 0.00 26 1018.1
20260506214009 20 358 12.9 14.5 0.00 0.00 0.00 24 1018.2
20260506213546 20 14 11.3 24.1 0.00 0.00 0.00 24 1018.2
20260506213047 20 10 12.9 27.4 0.00 0.00 0.00 24 1018.4
20260506212509 20 279 8.0 14.5 0.00 0.00 0.00 25 1018.3
20260506212009 18 309 8.0 14.5 0.00 0.00 0.00 26 1018.2
20260506211547 18 92 4.8 11.3 0.00 0.00 0.00 25 1018.3
20260506211009 20 110 8.0 14.5 0.00 0.00 0.00 25 1018.4
20260506210547 20 86 3.2 17.7 0.00 0.00 0.00 25 1018.4
20260506210047 18 74 9.7 19.3 0.00 0.00 0.00 26 1018.6
20260506205547 19 61 11.3 20.9 0.00 0.00 0.00 25 1018.6
20260506205047 19 329 4.8 9.7 0.00 0.00 0.00 26 1018.6
20260506204547 19 2 4.8 16.1 0.00 0.00 0.00 26 1018.8
20260506204047 20 335 12.9 12.9 0.00 0.00 0.00 25 1018.6
20260506203547 19 3 11.3 11.3 0.00 0.00 0.00 25 1018.5
20260506203010 18 292 12.9 22.5 0.00 0.00 0.00 26 1018.7
20260506202546 18 140 4.8 12.9 0.00 0.00 0.00 27 1018.8
20260506202047 17 304 20.9 25.7 0.00 0.00 0.00 27 1018.6
20260506200010 18 339 11.3 19.3 0.00 0.00 0.00 27 1018.7
20260506195547 17 245 14.5 17.7 0.00 0.00 0.00 28 1018.8
20260506195047 17 305 19.3 25.7 0.00 0.00 0.00 28 1018.8
20260506194509 17 341 6.4 20.9 0.00 0.00 0.00 29 1018.9
20260506194010 17 34 9.7 25.7 0.00 0.00 0.00 28 1018.8
20260506193547 17 286 25.7 29.0 0.00 0.00 0.00 28 1018.9
20260506193009 17 26 8.0 19.3 0.00 0.00 0.00 28 1019.0
20260506192546 17 296 19.3 24.1 0.00 0.00 0.00 28 1018.9
20260506192047 17 49 11.3 19.3 0.00 0.00 0.00 28 1018.8
20260506191546 17 290 11.3 30.6 0.00 0.00 0.00 28 1018.7
20260506191009 18 8 20.9 24.1 0.00 0.00 0.00 27 1018.8
20260506190547 17 13 17.7 20.9 0.00 0.00 0.00 27 1018.8
20260506190047 17 28 8.0 17.7 0.00 0.00 0.00 27 1019.0
20260506185547 17 18 9.7 24.1 0.00 0.00 0.00 28 1019.2
20260506183546 16 313 22.5 27.4 0.00 0.00 0.00 29 1018.8
20260506183046 16 317 8.0 11.3 0.00 0.00 0.00 29 1019.0
20260506182547 17 13 12.9 16.1 0.00 0.00 0.00 28 1019.2
20260506182009 17 40 4.8 9.7 0.00 0.00 0.00 30 1019.2
20260506181546 16 71 12.9 19.3 0.00 0.00 0.00 30 1019.4
20260506181046 16 293 8.0 19.3 0.00 0.00 0.00 31 1019.4
20260506180510 16 351 11.3 16.1 0.00 0.00 0.00 30 1019.2
20260506180010 16 72 16.1 22.5 0.00 0.00 0.00 30 1019.3
20260506175546 16 143 4.8 6.4 0.00 0.00 0.00 31 1019.4
20260506175010 16 15 12.9 17.7 0.00 0.00 0.00 31 1019.3
20260506174547 16 112 17.7 19.3 0.00 0.00 0.00 31 1019.3
20260506174047 15 327 0.0 16.1 0.00 0.00 0.00 33 1019.2
20260506173546 16 39 6.4 11.3 0.00 0.00 0.00 32 1019.3
20260506173010 15 54 9.7 20.9 0.00 0.00 0.00 32 1019.2
20260506172547 15 74 4.8 8.0 0.00 0.00 0.00 32 1019.0
20260506172047 14 104 6.4 12.9 0.00 0.00 0.00 34 1019.0
20260506171511 13 30 3.2 19.3 0.00 0.00 0.00 35 1019.2
20260506171009 13 293 0.0 8.0 0.00 0.00 0.00 34 1019.2
20260506170547 13 213 9.7 11.3 0.00 0.00 0.00 35 1018.9
20260506170047 14 251 4.8 17.7 0.00 0.00 0.00 34 1018.9
20260506165546 13 323 6.4 20.9 0.00 0.00 0.00 35 1018.8
20260506165046 13 286 0.0 11.3 0.00 0.00 0.00 35 1018.9
20260506164547 14 16 6.4 9.7 0.00 0.00 0.00 34 1019.3
20260506164009 13 300 8.0 11.3 0.00 0.00 0.00 35 1019.0
20260506163546 13 310 8.0 19.3 0.00 0.00 0.00 36 1018.9
20260506163047 12 288 16.1 16.1 0.00 0.00 0.00 36 1018.8
20260506162509 13 333 8.0 9.7 0.00 0.00 0.00 34 1018.8
20260506162009 13 340 9.7 11.3 0.00 0.00 0.00 34 1018.9
20260506161546 13 305 9.7 20.9 0.00 0.00 0.00 35 1018.7
20260506161009 12 48 6.4 9.7 0.00 0.00 0.00 36 1018.7
20260506160547 12 133 9.7 11.3 0.00 0.00 0.00 35 1018.8
20260506160046 12 341 8.0 12.9 0.00 0.00 0.00 36 1018.6
20260506155547 12 276 4.8 16.1 0.00 0.00 0.00 37 1018.6
20260506155047 12 324 3.2 6.4 0.00 0.00 0.00 37 1018.6
20260506154546 12 266 14.5 16.1 0.00 0.00 0.00 37 1018.8
20260506154046 12 1 11.3 12.9 0.00 0.00 0.00 37 1018.6
20260506153547 11 212 4.8 12.9 0.00 0.00 0.00 37 1018.5
20260506151546 12 177 6.4 9.7 0.00 0.00 0.00 36 1018.5
20260506151047 12 309 8.0 9.7 0.00 0.00 0.00 38 1018.5
20260506150547 11 32 8.0 11.3 0.00 0.00 0.00 36 1018.4
20260506150011 11 261 9.7 11.3 0.00 0.00 0.00 38 1018.4
20260506145547 11 266 4.8 6.4 0.00 0.00 0.00 38 1018.6
20260506145046 11 353 6.4 8.0 0.00 0.00 0.00 38 1018.5
20260506144510 10 133 3.2 4.8 0.00 0.00 0.00 39 1018.3
20260506144047 10 343 9.7 12.9 0.00 0.00 0.00 41 1018.4
20260506143547 10 336 4.8 6.4 0.00 0.00 0.00 40 1018.4
20260506143010 11 187 3.2 4.8 0.00 0.00 0.00 42 1018.3
20260506142546 11 269 4.8 4.8 0.00 0.00 0.00 44 1018.4
20260506142046 11 62 4.8 8.0 0.00 0.00 0.00 45 1018.2
20260506141546 10 103 6.4 8.0 0.00 0.00 0.00 45 1018.4
20260506141009 10 71 4.8 8.0 0.00 0.00 0.00 47 1018.2
20260506140546 10 89 4.8 8.0 0.00 0.00 0.00 47 1018.3
20260506140047 10 113 4.8 8.0 0.00 0.00 0.00 48 1018.2
20260506135547 10 94 6.4 8.0 0.00 0.00 0.00 49 1018.3
20260506135010 10 103 4.8 4.8 0.00 0.00 0.00 49 1018.2
20260506134547 8 103 3.2 4.8 0.00 0.00 0.00 52 1018.2
20260506134046 7 148 3.2 4.8 0.00 0.00 0.00 56 1018.0
20260506133546 6 131 0.0 4.8 0.00 0.00 0.00 59 1018.0
20260506133047 5 60 0.0 4.8 0.00 0.00 0.00 61 1018.0
20260506131047 3 271 4.8 4.8 0.00 0.00 0.00 69 1017.9
20260506130510 2 255 3.2 4.8 0.00 0.00 0.00 72 1018.0
20260506130010 2 313 3.2 3.2 0.00 0.00 0.00 73 1017.8
20260506125546 2 254 4.8 4.8 0.00 0.00 0.00 74 1018.0
20260506125010 1 311 3.2 4.8 0.00 0.00 0.00 75 1018.0
20260506123011 2 0 0.0 3.2 0.00 0.00 0.00 73 1017.5
20260506122547 2 193 0.0 3.2 0.00 0.00 0.00 73 1017.4
20260506122047 3 193 0.0 4.8 0.00 0.00 0.00 70 1017.2
20260506121510 3 201 3.2 4.8 0.00 0.00 0.00 71 1017.4
20260506121010 2 268 4.8 4.8 0.00 0.00 0.00 72 1017.4
20260506120547 2 252 3.2 6.4 0.00 0.00 0.00 71 1017.6
20260506120047 3 246 0.0 0.0 0.00 0.00 0.00 68 1017.5
20260506115547 3 246 0.0 0.0 0.00 0.00 0.00 68 1017.3
20260506115047 3 246 0.0 0.0 0.00 0.00 0.00 68 1017.6
20260506112010 4 252 6.4 6.4 0.00 0.00 0.00 65 1017.2
20260506111547 3 255 8.0 8.0 0.00 0.00 0.00 66 1017.3
20260506111011 3 253 4.8 4.8 0.00 0.00 0.00 67 1017.2
20260506110547 3 185 3.2 3.2 0.00 0.00 0.00 66 1017.5
20260506110047 3 340 0.0 3.2 0.00 0.00 0.00 66 1017.3
20260506105547 3 180 0.0 0.0 0.00 0.00 0.00 68 1017.2
20260506105010 3 180 0.0 0.0 0.00 0.00 0.00 68 1017.3
20260506104546 2 211 4.8 4.8 0.00 0.00 0.00 69 1017.1
20260506104047 2 125 4.8 8.0 0.00 0.00 0.00 67 1017.1
20260506102047 4 237 4.8 6.4 0.00 0.00 0.00 63 1017.0
20260506101547 4 237 4.8 6.4 0.00 0.00 0.00 63 1017.1
20260506101047 4 251 6.4 8.0 0.00 0.00 0.00 63 1017.1
20260506100547 4 261 8.0 8.0 0.00 0.00 0.00 63 1017.1
20260506100009 4 227 4.8 6.4 0.00 0.00 0.00 62 1017.0